Find OneWeb SL0326

NORAD ID: 49195 Int'l Des: 2021-083 Owner: ONEWEBN Country: UK Constellation: oneweb operational
別名: ONEWEB-0326 spacetrack, celestrak
LEOCIRCULARPOLARONEWEB_TYPE

現在のビュー

3D地球を読み込み中...

About OneWeb SL0326

OneWeb SL0326 (NORAD 49195) is a oneweb constellation satellite launched Sep 14, 2021 by ONEWEBN of UK. It operates in LEO, CIRCULAR, POLAR, ONEWEB_TYPE orbit with a mass of 148.00 kg.

次回通過

Passes for default location (London). Set your location on the main map for personalized predictions.

高度履歴

Loading altitude history...

軌道要素

1 49195U 21083K 26263.91004938 .00000037 00000-0 61538-4 0 9992
2 49195 87.9162 316.4384 0002185 100.7312 259.4066 13.18686474242617
Epoch: Sep 20, 2026 • Age: 5 hours

現在のステータス

高度 1216.3 km
遠地点 / 近地点 N/A
速度 7.24 km/s
衛星直下点 -65.41°S, 92.75°W
打ち上げ日 Sep 14, 2021
運用期間 5 years
タイプ internet

技術仕様

分類 Payload
質量 148.00 kg
乾燥質量 140.00 kg
長さ 1.30 m
直径 1.00 m
スパン 5.00 m
形状 ? Trapezoid+2 pan
製造者 ONEWUS
バスタイプ ARROW
フェーズステータス In Orbit
所有者/国 ONEWEBN/UK

Most Searched